Temp
59 62 66 69 69 52 56 62 55 59 62 62 52 48 50 49 43 49 47 51 52 57 64 68 65 68 72 74 77 78 78 78 77 77 79 79 80 81 81 81 81 80 81 81 82 82 82 82 81 81 79 79 79 78 78 77 77 78 77 77 77 77 77
60 63 61 65 72 64 58 55 60 64 67 64 54 44 45 44 39 40 43 54 51 55 55 62 64 64 69 71 73 77 77 77 75 78 78 79 80 81 81 82 81 81 81 81 82 83 83 83 82 81 80 81 80 80 79 78 77 77 77 78 78 78 77
58 61 61 63 68 72 66 61 69 63 47 51 55 49 42 39 40 36 44 45 49 54 56 55 62 63 67 68 71 73 75 75 76 78 78 79 81 81 81 81 81 81 81 81 81 83 84 84 82 82 82 82 81 80 80 80 78 79 79 80 79 78 78
54 57 57 53 59 66 72 67 67 64 58 56 49 53 41 45 37 40 42 47 48 54 61 62 68 66 68 69 69 71 75 77 78 78 79 79 79 80 81 82 82 82 82 83 83 83 83 83 83 83 83 83 82 81 80 80 80 80 79 79 78 78 78
54 48 54 55 58 56 60 59 56 60 60 57 62 52 54 46 37 37 38 42 45 51 58 64 69 69 69 71 71 71 75 78 79 80 80 80 80 80 81 82 83 82 83 84 84 84 85 85 84 84 83 82 82 82 81 81 79 79 79 79 79 78 78
41 47 54 53 53 52 50 54 54 58 57 51 49 47 56 51 47 37 40 44 43 56 63 68 70 72 74 72 74 73 75 78 79 80 81 80 80 81 82 83 84 84 83 84 84 84 84 84 84 83 83 83 82 82 82 81 81 80 80 79 79 78 78
43 50 55 59 58 57 56 57 53 57 57 51 50 41 45 51 54 49 44 42 51 59 62 67 70 71 73 73 73 73 75 76 79 81 82 82 82 82 83 83 84 85 84 84 83 83 82 83 83 83 83 83 82 82 82 82 81 81 81 80 80 79 78
47 52 56 56 58 56 53 55 54 54 52 53 52 53 47 52 46 50 51 47 54 66 61 65 69 67 70 69 71 73 75 76 78 79 80 80 80 81 83 84 85 84 84 83 81 81 81 81 81 81 82 82 82 82 82 82 81 81 81 81 81 79 78
42 50 50 53 52 53 47 45 50 52 54 53 52 55 50 51 51 55 47 45 56 60 57 58 62 65 70 70 70 70 72 73 76 79 80 81 80 80 81 82 82 82 82 80 79 80 79 80 82 81 81 82 82 82 82 82 82 82 82 81 81 80 79
29 36 37 32 32 40 45 48 49 52 50 50 50 48 49 46 48 51 49 53 59 62 58 62 62 63 65 64 65 69 71 73 74 75 78 79 79 79 80 80 81 80 80 80 79 79 79 81 82 80 80 82 82 82 82 83 82 82 82 82 81 80 80
32 34 35 43 45 43 40 44 46 47 51 52 51 47 42 44 42 49 52 58 59 59 64 65 69 65 66 68 65 68 70 72 74 72 76 79 79 79 80 80 81 79 78 78 79 79 81 82 82 82 82 82 82 81 81 83 83 82 81 81 80 79 80
40 43 42 46 47 42 43 43 44 48 49 50 48 45 45 48 44 49 53 53 56 64 66 65 65 69 67 64 65 68 68 71 75 76 74 78 79 80 80 80 78 78 78 78 78 79 80 81 82 82 82 82 82 81 81 82 83 83 82 81 79 78 79
42 44 45 46 45 45 45 45 45 45 48 49 47 47 51 50 48 50 55 51 56 66 68 68 69 71 71 69 68 71 74 74 74 73 74 75 78 79 79 78 78 78 78 77 78 79 80 81 81 81 81 81 81 81 82 81 83 82 81 80 79 79 78
41 42 44 46 44 45 46 46 48 49 50 50 52 52 53 53 49 52 55 54 61 69 71 69 70 64 66 67 65 64 66 71 71 73 74 76 78 78 79 78 79 78 79 78 78 79 79 80 80 81 80 80 81 81 81 82 81 82 80 79 78 78 78
37 42 45 46 46 45 43 46 48 50 51 52 53 53 54 54 53 55 56 55 57 66 58 60 59 56 58 61 63 66 66 67 70 72 74 76 77 78 79 78 79 79 79 78 78 78 78 79 80 80 80 81 82 83 82 81 80 81 81 79 79 79 78
33 41 43 43 45 44 43 43 47 48 49 48 51 49 51 49 49 50 54 52 57 60 60 61 60 60 60 60 61 62 63 66 68 71 74 75 76 77 78 78 79 78 78 77 77 78 80 80 80 81 80 81 81 81 81 81 82 82 81 80 79 78 79
31 40 42 41 41 42 41 43 47 48 50 52 54 54 54 52 50 48 52 58 55 55 58 59 59 61 62 63 62 63 64 62 65 69 72 75 76 77 77 77 78 79 79 79 79 80 81 81 81 83 82 82 80 81 81 81 82 82 81 81 79 78 79
30 37 39 41 36 33 37 50 53 52 49 51 48 50 53 54 54 50 52 52 56 57 59 59 59 61 62 62 64 65 64 63 62 66 68 72 76 78 79 79 79 79 79 80 81 81 81 82 84 84 83 83 82 82 82 81 81 80 80 80 79 79 78
28 34 38 34 28 35 48 53 55 55 55 55 51 53 56 55 55 55 54 55 56 60 61 62 62 63 64 66 66 67 68 67 64 65 69 69 73 74 76 76 79 78 78 79 79 79 81 82 82 83 82 82 80 80 81 80 81 79 80 79 78 78 78
36 30 29 24 32 45 50 53 54 57 57 55 52 52 57 56 56 55 53 55 59 62 62 63 64 65 68 67 68 68 70 69 68 66 68 70 73 74 75 76 76 76 78 78 80 79 81 81 82 83 82 82 81 80 81 81 81 80 80 79 79 79 78
26 29 29 32 38 44 45 44 47 50 46 49 47 41 50 56 56 55 54 55 59 61 63 63 64 64 66 64 66 71 71 70 70 69 68 69 73 74 73 76 75 75 77 77 78 78 79 81 82 83 83 82 81 80 80 81 80 80 79 78 79 79 79
35 23 26 27 28 32 38 45 51 55 56 56 55 50 48 57 56 57 55 54 57 59 63 64 63 63 63 60 63 69 71 71 70 71 71 71 71 73 74 73 74 74 75 76 78 79 78 79 81 81 82 81 79 78 79 79 80 79 80 79 79 79 79
33 27 24 24 23 31 42 43 49 52 56 55 56 48 45 53 55 55 55 54 56 58 61 63 64 62 58 59 62 67 69 70 71 70 70 71 71 71 73 75 75 75 76 77 78 78 78 78 78 80 81 80 79 78 79 81 81 80 80 80 80 80 80
32 30 27 23 32 30 42 47 50 52 56 55 51 41 43 50 53 55 54 54 55 58 61 64 63 62 59 60 63 67 69 70 71 71 70 70 71 72 73 74 75 75 76 77 77 78 78 78 78 81 81 80 79 79 80 81 80 80 80 81 81 82 81
34 33 29 33 36 45 47 48 50 53 56 52 44 37 44 51 52 53 54 54 56 58 59 61 59 60 63 64 66 69 70 70 70 72 72 72 72 72 73 74 76 74 75 76 76 77 77 76 79 81 81 80 79 79 78 79 79 81 82 81 81 81 81
31 31 29 31 37 46 49 51 51 54 52 41 40 48 54 52 51 53 53 54 56 57 58 58 59 61 64 66 67 67 67 68 69 70 71 71 72 74 74 75 74 73 73 73 73 73 74 76 78 79 79 78 77 77 77 78 79 81 81 81 81 81 81
37 35 31 31 28 43 52 50 51 51 42 41 49 51 53 54 52 52 52 53 54 56 56 60 60 62 64 64 64 65 66 67 67 68 69 69 69 70 71 71 74 74 72 72 72 72 74 76 77 77 78 76 76 76 76 76 75 76 79 80 80 80 80
32 34 31 32 42 45 51 49 42 46 48 50 51 52 49 52 52 51 50 52 54 57 59 60 61 61 61 63 64 64 64 65 67 68 69 69 69 70 72 72 72 73 71 71 71 72 73 74 75 77 77 75 75 75 74 75 75 75 76 77 79 80 80
37 36 40 46 49 49 52 50 49 49 51 51 51 50 50 48 50 53 51 51 54 58 60 60 61 60 61 61 62 62 62 64 65 66 67 68 68 68 69 70 71 71 71 70 70 70 71 72 74 75 76 76 75 74 74 75 75 75 75 75 76 78 79
45 47 47 51 50 50 49 51 51 50 50 51 50 49 47 49 49 52 52 54 54 57 61 58 59 60 60 60 60 62 63 63 64 65 67 67 68 69 69 69 71 70 70 71 71 70 70 71 72 73 74 75 74 73 74 75 75 75 74 74 74 76 77
38 35 49 48 48 52 51 49 51 52 51 50 50 49 48 49 50 51 54 55 55 58 60 58 58 60 61 60 59 60 61 62 63 63 64 65 66 66 66 69 70 69 69 69 69 70 69 69 71 71 71 72 72 73 73 73 74 74 73 73 74 75 75
36 39 45 47 50 52 53 50 47 47 49 50 50 50 50 51 52 52 54 55 55 58 59 58 58 59 60 59 58 58 59 59 60 61 63 63 64 66 66 68 69 68 68 68 68 68 68 68 69 70 71 71 71 72 73 73 73 74 74 73 74 74 74
40 44 47 46 48 51 49 50 50 49 49 49 49 51 51 52 51 52 54 55 55 57 58 58 57 57 58 60 58 57 58 59 59 60 62 63 63 65 65 66 68 67 67 67 67 68 67 68 69 69 69 70 71 71 72 73 73 75 75 75 74 73 73
34 38 41 43 37 37 45 49 50 50 51 51 50 50 51 51 50 51 51 53 56 56 58 57 57 55 56 59 58 57 58 59 59 60 61 62 63 64 66 67 67 67 68 68 67 68 67 67 68 69 69 69 70 71 72 72 73 73 73 73 73 72 72
34 42 45 46 45 44 45 47 50 52 52 50 50 49 49 50 51 51 51 52 54 54 57 59 56 56 56 57 58 57 58 58 60 60 61 61 62 63 64 65 65 66 67 68 68 68 67 68 68 68 69 69 70 70 70 71 72 72 72 72 72 72 72
43 46 46 47 45 43 46 50 51 51 52 49 48 49 50 50 51 52 52 53 53 53 56 57 58 56 56 57 57 56 57 59 59 61 62 62 62 63 64 64 64 65 66 67 66 67 67 67 68 68 69 69 69 70 70 70 71 71 71 72 72 71 72
41 47 48 48 47 48 50 51 51 52 53 53 50 49 50 50 51 52 52 53 54 54 54 55 57 58 56 56 57 56 56 58 60 63 62 62 62 63 63 64 64 64 64 65 65 66 66 67 68 68 68 69 69 69 70 70 71 70 70 70 70 71 71
MSLP
1006.94 1006.82 1005.66 1004.58 1004.78 1010.26 1007.86 1008.02 1009.98 1008.46 1006.70 1008.18 1010.38 1011.18 1011.10 1011.30 1011.34 1011.14 1008.14 1008.26 1007.98 1005.30 1003.70 1002.02 1002.70 1003.10 1002.90 1002.42 1002.22 1002.22 1002.22 1002.34 1002.74 1003.26 1003.26 1003.46 1003.62 1003.94 1004.18 1004.38 1004.50 1004.70 1005.10 1005.42 1005.58 1005.90 1006.30 1006.74 1007.22 1007.54 1007.90 1008.26 1008.74 1009.34 1009.90 1010.42 1010.78 1011.10 1011.54 1011.90 1012.30 1012.58 1012.90
1006.30 1006.58 1006.62 1005.62 1003.90 1004.50 1007.26 1009.26 1007.54 1006.14 1005.34 1006.58 1009.66 1012.94 1011.42 1011.74 1013.10 1011.30 1008.98 1008.98 1008.34 1007.62 1008.26 1003.14 1003.22 1003.82 1003.02 1003.02 1002.66 1002.10 1001.90 1002.26 1002.98 1002.70 1002.66 1002.74 1002.94 1002.98 1002.94 1003.02 1003.22 1003.78 1004.26 1004.54 1004.90 1005.26 1005.50 1005.82 1006.26 1006.90 1007.42 1007.70 1008.18 1008.58 1009.10 1009.82 1010.42 1010.98 1011.22 1011.50 1011.90 1012.22 1012.66
1007.74 1006.90 1006.14 1004.94 1004.18 1003.14 1005.38 1006.42 1004.46 1007.70 1011.10 1011.42 1008.98 1010.58 1013.78 1013.54 1013.22 1012.14 1009.14 1008.94 1008.26 1006.74 1006.06 1004.26 1004.02 1003.74 1003.06 1003.18 1002.62 1002.38 1002.38 1002.58 1002.50 1002.18 1002.14 1002.02 1002.02 1002.42 1002.86 1003.06 1003.38 1003.90 1004.22 1004.58 1004.82 1004.82 1004.86 1005.30 1005.74 1006.14 1006.74 1007.34 1007.90 1008.34 1008.62 1009.02 1009.66 1010.02 1010.54 1011.02 1011.46 1011.82 1012.18
1009.14 1007.94 1007.14 1008.26 1006.38 1004.50 1003.54 1003.86 1005.58 1004.54 1006.42 1008.62 1010.58 1009.30 1009.30 1010.22 1012.70 1012.14 1010.70 1009.26 1008.54 1006.02 1004.18 1002.86 1002.42 1002.58 1002.06 1002.30 1002.78 1002.62 1001.78 1001.62 1001.58 1001.62 1001.70 1001.94 1002.18 1002.30 1002.30 1002.42 1002.70 1003.06 1003.30 1003.50 1003.78 1004.14 1004.62 1004.94 1005.42 1005.90 1006.50 1007.06 1007.62 1007.90 1008.38 1008.82 1009.18 1009.62 1010.14 1010.62 1010.98 1011.54 1011.86
1008.74 1008.22 1007.34 1007.42 1006.46 1007.14 1006.82 1006.74 1007.02 1006.58 1006.22 1005.62 1006.22 1007.46 1008.46 1009.78 1011.22 1011.14 1010.98 1010.50 1007.22 1004.22 1002.34 1001.94 1000.86 1000.90 1001.30 1001.26 1001.78 1001.78 1001.46 1000.82 1000.62 1000.62 1000.82 1001.14 1001.38 1001.58 1001.58 1001.70 1001.98 1002.26 1002.54 1002.82 1003.14 1003.46 1003.90 1004.50 1005.18 1005.78 1006.22 1006.62 1006.98 1007.50 1008.06 1008.38 1009.02 1009.46 1009.90 1010.18 1010.62 1011.06 1011.46
1011.62 1009.90 1008.38 1009.06 1009.42 1009.62 1009.82 1008.18 1007.46 1006.50 1007.30 1008.42 1009.98 1010.46 1007.22 1007.42 1009.18 1010.38 1010.46 1010.34 1006.62 1002.18 1002.22 1001.18 1000.66 999.82 999.74 1000.26 1000.18 1000.86 1000.70 1000.30 1000.06 999.98 1000.10 1000.30 1000.82 1000.70 1000.66 1000.90 1001.14 1001.50 1001.82 1002.14 1002.58 1003.10 1003.70 1004.46 1005.02 1005.42 1005.58 1006.18 1006.78 1007.22 1007.46 1007.94 1008.46 1008.94 1009.38 1009.90 1010.30 1010.66 1011.02
1011.78 1009.94 1008.14 1007.82 1008.46 1008.70 1008.58 1008.50 1008.10 1006.90 1006.38 1006.14 1007.94 1010.78 1008.86 1007.42 1007.06 1006.78 1007.66 1009.46 1006.46 1001.18 1000.22 1000.58 999.86 999.98 999.90 999.54 999.90 1000.10 1000.10 1000.02 999.58 999.26 999.14 999.38 999.46 999.78 1000.02 1000.30 1000.54 1000.78 1001.18 1001.62 1002.22 1002.78 1003.22 1003.54 1003.98 1004.50 1005.22 1005.74 1006.18 1006.66 1007.14 1007.58 1008.02 1008.38 1008.66 1009.14 1009.54 1010.10 1010.66
1010.30 1008.98 1008.18 1008.06 1007.62 1007.98 1008.86 1008.34 1009.18 1009.02 1008.34 1008.78 1008.70 1007.14 1006.50 1007.14 1007.46 1008.30 1008.22 1009.30 1005.22 1000.62 999.38 1000.26 1000.30 999.98 999.70 999.82 999.94 999.26 999.66 999.86 999.58 999.42 999.34 999.46 999.70 999.66 999.66 999.78 999.98 1000.30 1000.74 1001.50 1002.34 1003.02 1003.38 1003.70 1004.18 1004.54 1004.74 1005.14 1005.66 1006.14 1006.54 1007.06 1007.62 1007.90 1008.34 1008.74 1009.22 1009.82 1010.30
1009.22 1007.50 1007.90 1007.74 1008.38 1009.34 1011.06 1011.74 1010.82 1010.22 1009.58 1009.42 1009.14 1007.10 1007.26 1007.02 1006.50 1006.30 1008.02 1009.54 1005.42 1001.62 1001.82 1000.98 1000.86 1000.42 1000.10 999.66 999.34 999.66 999.50 999.58 999.42 999.06 998.86 998.94 999.06 999.34 999.58 999.78 999.98 1000.38 1001.18 1001.86 1002.14 1002.34 1002.70 1003.06 1003.30 1003.70 1004.26 1004.78 1005.18 1005.62 1006.06 1006.54 1006.94 1007.34 1007.86 1008.26 1008.90 1009.46 1009.98
1012.70 1011.10 1010.14 1012.34 1014.14 1013.22 1012.26 1011.38 1010.74 1010.42 1011.06 1010.46 1009.22 1007.62 1007.38 1008.02 1005.94 1005.94 1006.50 1005.86 1002.86 1001.54 1001.26 1000.26 1000.14 999.54 999.22 999.18 999.62 999.54 999.50 999.10 999.50 999.46 999.10 998.78 998.86 999.10 999.22 999.42 999.90 1000.54 1000.66 1000.82 1001.30 1001.78 1002.18 1002.46 1002.82 1003.30 1003.74 1004.18 1004.62 1005.10 1005.50 1005.82 1006.58 1007.14 1007.54 1007.90 1008.46 1009.14 1009.62
1014.02 1013.18 1014.54 1013.98 1013.78 1013.66 1013.34 1011.46 1011.50 1011.22 1010.70 1010.42 1010.34 1010.34 1010.58 1009.10 1006.54 1006.18 1004.70 1003.18 1003.26 1002.42 1000.66 999.98 999.74 1000.66 1000.66 999.82 999.34 999.18 999.10 999.02 998.90 999.14 998.98 998.70 998.70 998.70 998.82 999.02 999.26 999.66 1000.38 1000.74 1000.78 1001.06 1001.42 1001.78 1002.26 1002.74 1003.26 1003.78 1004.22 1004.74 1005.26 1005.54 1005.94 1006.54 1007.06 1007.58 1008.18 1008.78 1009.26
1013.50 1013.30 1013.42 1013.18 1013.34 1013.74 1012.98 1013.06 1011.66 1010.82 1010.70 1010.46 1010.90 1010.98 1009.66 1006.78 1006.54 1007.02 1003.78 1003.02 1003.62 1001.86 1001.30 1000.90 1000.34 999.38 999.46 999.78 999.02 998.46 998.58 998.50 998.42 998.38 998.66 998.46 998.42 998.26 998.30 998.70 999.22 999.74 999.86 1000.06 1000.46 1000.78 1001.18 1001.58 1001.94 1002.46 1002.82 1003.18 1003.66 1004.22 1004.82 1005.18 1005.66 1006.26 1006.74 1007.30 1007.86 1008.38 1008.86
1013.54 1013.14 1013.10 1012.98 1013.22 1013.06 1012.66 1012.42 1011.94 1011.34 1010.26 1010.22 1010.46 1009.46 1008.54 1008.54 1008.38 1006.58 1003.58 1002.26 1002.70 1000.18 999.78 999.94 999.42 998.94 999.02 999.06 998.70 997.86 997.26 997.42 997.78 997.98 998.34 998.62 998.34 998.18 998.38 998.50 998.74 999.02 999.46 999.82 1000.10 1000.46 1000.78 1001.18 1001.78 1002.22 1002.66 1003.14 1003.58 1004.10 1004.50 1004.86 1005.22 1005.70 1006.10 1006.82 1007.46 1007.90 1008.42
1013.66 1013.18 1013.10 1012.70 1012.86 1012.66 1012.26 1011.74 1010.94 1010.18 1009.90 1009.22 1008.62 1008.18 1007.50 1007.62 1007.46 1006.38 1005.14 1003.14 1001.34 999.46 998.94 998.98 998.94 998.94 998.62 998.34 998.78 998.90 998.66 998.06 997.82 998.02 997.90 997.86 997.78 997.78 997.86 997.98 998.14 998.34 998.58 999.02 999.46 999.86 1000.46 1000.94 1001.38 1001.90 1002.38 1002.78 1003.14 1003.58 1004.02 1004.38 1004.82 1005.14 1005.74 1006.46 1007.02 1007.58 1008.06
1013.42 1012.66 1012.30 1011.98 1012.06 1012.18 1012.46 1011.02 1010.66 1009.94 1009.06 1008.34 1007.42 1007.14 1006.78 1006.54 1006.66 1006.14 1005.14 1004.46 1003.10 999.86 1000.26 1000.54 999.58 999.18 999.02 998.98 998.70 998.74 998.98 998.66 998.18 997.82 997.50 997.14 997.06 997.06 997.22 997.42 997.58 997.74 998.14 998.58 999.22 999.78 1000.18 1000.50 1000.82 1001.18 1001.58 1001.94 1002.42 1002.98 1003.50 1003.98 1004.46 1004.74 1005.22 1006.02 1006.58 1007.06 1007.46
1013.18 1012.30 1012.10 1012.30 1012.22 1012.26 1012.18 1011.34 1010.14 1009.66 1009.14 1008.90 1008.14 1007.90 1007.50 1007.06 1005.86 1004.62 1004.34 1004.54 1002.86 1000.82 1001.38 1001.70 1000.10 999.62 999.54 999.98 1000.42 999.98 999.54 998.42 997.66 997.38 996.98 996.78 996.66 996.70 996.90 997.06 997.26 997.62 998.02 998.58 999.10 999.46 999.70 999.98 1000.38 1000.78 1001.30 1001.74 1002.26 1002.74 1003.02 1003.50 1003.86 1004.30 1004.98 1005.62 1006.22 1006.66 1006.98
1013.38 1012.50 1012.50 1012.46 1012.38 1010.90 1009.98 1010.22 1009.90 1009.70 1008.70 1008.50 1007.86 1007.42 1007.18 1007.46 1007.66 1006.30 1004.10 1002.34 1002.90 1003.98 1002.86 1002.06 1000.94 1000.62 1000.42 1000.66 1000.74 1000.42 999.66 998.82 997.70 997.02 996.78 996.42 996.26 996.22 996.38 996.74 996.98 997.22 997.58 997.86 998.14 998.46 998.90 999.34 999.82 999.98 1000.38 1001.18 1001.70 1001.90 1002.50 1002.86 1003.46 1004.18 1004.70 1005.18 1005.78 1006.38 1006.74
1013.02 1012.86 1012.58 1012.34 1012.18 1011.70 1009.82 1008.34 1008.86 1008.90 1009.22 1008.62 1009.42 1008.50 1007.54 1007.22 1006.90 1007.10 1006.34 1005.78 1004.46 1003.74 1002.86 1002.18 1001.62 1001.26 1001.06 1000.98 1000.42 999.90 999.98 999.54 998.34 996.66 996.42 996.34 996.34 996.10 995.98 995.98 996.26 996.50 996.86 997.22 997.42 997.66 997.98 998.26 998.54 999.02 999.66 1000.26 1000.86 1001.42 1002.14 1002.82 1003.38 1003.90 1004.46 1004.98 1005.42 1005.90 1006.30
1013.74 1013.02 1012.38 1012.06 1012.22 1009.94 1008.66 1008.14 1007.94 1007.94 1007.86 1008.06 1008.70 1007.82 1007.06 1007.18 1006.42 1006.02 1005.70 1005.06 1004.50 1003.42 1002.74 1002.10 1001.70 1001.14 1000.58 1000.02 999.98 999.62 999.18 998.90 998.78 997.50 995.90 996.02 995.86 996.18 996.34 996.46 996.38 996.46 996.54 996.82 997.30 997.90 998.26 998.54 999.02 999.58 1000.22 1000.70 1001.30 1001.82 1002.18 1002.82 1003.18 1003.78 1004.18 1004.66 1005.18 1005.58 1005.98
1013.38 1013.38 1013.22 1013.02 1010.26 1009.02 1008.66 1008.10 1008.22 1007.86 1007.62 1008.22 1008.26 1007.42 1006.74 1006.86 1006.86 1006.70 1006.30 1005.42 1004.26 1003.22 1002.50 1001.42 1000.74 1000.50 1000.06 999.86 999.38 999.26 998.78 998.54 998.46 998.10 996.54 995.38 995.54 995.82 995.94 996.14 996.26 996.46 996.66 996.90 997.14 997.42 997.62 998.34 998.82 999.14 999.82 1000.18 1000.86 1001.50 1001.70 1002.42 1002.98 1003.42 1003.90 1004.46 1004.86 1005.22 1005.66
1014.10 1013.02 1013.02 1011.74 1010.30 1009.10 1008.54 1008.50 1009.34 1009.22 1010.18 1009.62 1010.10 1010.74 1007.98 1006.98 1006.98 1006.90 1006.66 1005.58 1004.38 1003.26 1002.34 1001.62 1000.94 1000.02 1000.14 1000.46 1000.06 999.02 998.82 998.54 998.14 997.90 997.50 996.46 995.26 995.30 995.70 995.82 996.22 996.18 996.26 996.70 997.10 997.54 997.98 998.26 998.70 999.18 999.58 1000.06 1000.70 1001.42 1002.02 1002.38 1002.82 1003.34 1003.78 1004.30 1004.58 1004.82 1005.18
1013.18 1013.78 1013.42 1012.10 1011.26 1009.74 1009.90 1010.26 1009.54 1008.98 1008.82 1008.94 1008.82 1009.46 1008.74 1006.86 1006.86 1006.82 1006.70 1006.26 1005.14 1003.86 1002.34 1001.26 1000.38 1000.26 1000.42 1001.58 1001.62 1000.06 999.26 998.74 998.54 997.86 997.34 996.62 996.06 995.38 995.34 995.70 995.98 996.30 996.50 996.78 997.02 997.42 998.02 998.38 998.66 999.02 999.42 1000.02 1000.66 1001.34 1001.86 1002.26 1002.74 1003.26 1003.62 1003.90 1004.02 1004.38 1004.70
1014.50 1013.90 1013.90 1012.82 1010.86 1009.02 1010.62 1010.26 1009.46 1009.02 1008.82 1008.78 1008.22 1009.58 1008.86 1007.78 1007.74 1007.22 1006.98 1006.34 1005.34 1004.50 1003.18 1001.94 1000.50 1000.90 1002.82 1003.18 1002.22 1000.86 999.90 999.34 998.78 998.58 997.86 997.14 996.50 996.14 995.66 995.46 996.02 996.30 996.46 996.58 997.02 997.46 997.98 998.70 998.78 998.86 999.34 999.94 1000.70 1001.34 1001.70 1002.06 1002.42 1002.94 1003.22 1003.34 1003.58 1003.90 1004.10
1015.50 1014.10 1013.82 1013.34 1012.06 1010.62 1009.90 1009.66 1009.02 1008.90 1008.30 1008.22 1008.82 1009.26 1008.74 1008.70 1008.14 1007.66 1007.22 1006.62 1006.02 1005.10 1003.62 1002.30 1002.06 1002.58 1003.26 1003.18 1002.26 1000.90 1000.18 999.66 999.14 998.82 998.46 997.74 997.10 996.66 996.26 996.06 995.90 996.18 996.42 996.78 997.34 997.70 998.02 998.26 998.34 998.66 999.14 999.82 1000.46 1001.02 1001.42 1001.70 1002.30 1002.58 1002.62 1002.58 1002.62 1002.90 1003.34
1014.34 1014.22 1013.98 1012.22 1010.74 1009.62 1009.66 1009.30 1008.98 1008.22 1007.54 1008.14 1009.14 1009.86 1010.02 1009.18 1008.70 1008.14 1007.78 1007.10 1006.34 1005.58 1004.50 1003.54 1003.70 1003.46 1002.90 1002.30 1001.50 1000.78 1000.26 1000.02 999.70 999.06 998.46 998.06 997.50 997.26 997.06 996.90 996.54 996.70 996.86 996.94 997.34 997.50 997.62 997.90 998.14 998.38 998.82 999.58 1000.30 1000.70 1001.18 1001.70 1001.98 1001.82 1001.70 1001.98 1002.42 1002.78 1003.06
1014.74 1014.30 1013.90 1012.58 1010.54 1009.86 1009.54 1008.86 1008.62 1007.66 1006.98 1009.70 1010.06 1009.78 1009.50 1009.50 1009.14 1008.54 1008.10 1007.46 1006.66 1006.06 1005.38 1004.78 1004.26 1003.46 1002.30 1001.70 1001.38 1001.18 1000.98 1000.82 1000.38 999.90 999.30 998.66 998.02 997.58 997.38 997.34 997.34 997.50 997.66 997.86 997.98 998.06 998.06 997.98 998.06 998.30 998.78 999.58 1000.18 1000.66 1001.14 1001.42 1001.30 1001.22 1001.54 1001.82 1002.06 1002.46 1002.86
1012.74 1012.46 1012.50 1011.82 1011.78 1009.54 1009.10 1009.30 1008.50 1008.30 1009.34 1011.54 1010.74 1010.06 1009.54 1009.30 1009.22 1008.90 1008.26 1007.74 1007.18 1006.46 1005.78 1004.54 1003.86 1003.18 1002.98 1002.86 1002.38 1001.98 1001.70 1001.50 1001.26 1000.74 1000.18 999.74 999.46 999.06 998.66 998.42 998.22 998.06 998.34 998.50 998.62 998.58 998.38 998.22 998.26 998.46 998.90 999.78 1000.30 1000.58 1001.06 1001.10 1001.02 1001.10 1001.30 1001.58 1001.94 1002.22 1002.54
1012.94 1012.02 1012.34 1011.94 1010.94 1010.86 1009.66 1009.50 1010.14 1010.42 1010.78 1010.98 1010.74 1010.30 1010.06 1009.38 1009.22 1009.06 1008.62 1007.82 1007.58 1006.62 1005.90 1005.06 1004.50 1004.22 1003.86 1003.14 1002.66 1002.34 1002.18 1002.02 1001.62 1001.06 1000.62 1000.30 999.98 999.66 999.30 999.10 999.10 998.82 998.98 998.98 998.98 998.94 998.78 998.66 998.66 998.78 999.10 1000.02 1000.38 1000.74 1001.10 1000.90 1000.86 1000.94 1001.14 1001.42 1001.66 1002.10 1002.38
1013.34 1012.30 1011.54 1010.62 1010.50 1010.50 1010.18 1010.10 1010.66 1010.82 1011.14 1011.22 1011.18 1011.10 1010.78 1010.70 1009.90 1009.18 1008.86 1008.18 1007.42 1006.82 1006.22 1005.82 1005.26 1004.94 1004.74 1004.50 1003.86 1003.58 1003.34 1002.90 1002.62 1002.18 1001.78 1001.38 1001.06 1000.70 1000.38 1000.02 999.66 999.54 999.70 999.78 999.54 999.46 999.34 999.26 999.18 999.26 999.30 999.90 1000.50 1000.94 1001.02 1000.78 1000.86 1000.94 1001.14 1001.38 1001.62 1001.86 1002.02
1012.62 1011.42 1011.06 1010.34 1010.54 1010.62 1010.86 1010.78 1010.86 1011.10 1011.66 1011.58 1011.62 1011.66 1011.58 1010.82 1010.62 1009.62 1008.98 1008.22 1007.74 1007.02 1006.34 1006.46 1005.90 1005.58 1005.34 1004.90 1004.30 1003.82 1003.54 1003.38 1003.06 1002.58 1002.22 1001.90 1001.50 1001.10 1000.70 1000.50 1000.26 1000.26 1000.14 1000.06 1000.02 1000.14 1000.10 999.90 999.82 999.74 999.78 999.78 1000.38 1000.90 1000.70 1000.74 1000.70 1000.82 1000.98 1001.26 1001.70 1001.86 1001.90
1013.02 1011.18 1010.46 1010.90 1010.86 1010.46 1010.70 1011.14 1011.06 1011.18 1011.50 1011.74 1011.82 1011.78 1011.62 1011.34 1010.66 1010.10 1008.86 1008.34 1007.98 1007.38 1006.66 1006.78 1006.62 1006.06 1005.62 1005.46 1005.14 1004.66 1004.26 1003.98 1003.82 1003.62 1003.38 1002.98 1002.54 1002.14 1001.74 1001.30 1000.94 1000.82 1000.74 1000.78 1000.78 1000.66 1000.70 1000.54 1000.42 1000.38 1000.34 1000.42 1000.58 1000.42 1000.46 1000.62 1000.70 1000.74 1000.98 1001.18 1001.46 1001.70 1001.90
1014.38 1011.62 1011.22 1011.22 1010.94 1010.50 1010.46 1011.10 1011.46 1011.62 1011.74 1011.50 1011.54 1011.50 1011.54 1011.22 1010.82 1010.46 1009.34 1008.46 1008.22 1007.66 1007.34 1007.30 1006.98 1006.34 1005.74 1005.58 1005.50 1005.38 1005.06 1004.82 1004.58 1004.30 1003.94 1003.62 1003.06 1002.46 1002.10 1001.74 1001.50 1001.46 1001.46 1001.46 1001.38 1001.30 1001.26 1001.06 1000.90 1000.86 1000.86 1000.86 1000.78 1000.66 1000.30 1000.38 1000.62 1000.78 1000.98 1001.18 1001.46 1001.66 1001.78
1013.42 1012.46 1011.82 1012.18 1011.10 1010.30 1011.14 1011.30 1011.34 1011.62 1011.74 1011.54 1011.42 1011.38 1011.30 1011.30 1011.22 1010.66 1009.58 1008.70 1008.62 1008.38 1008.10 1007.78 1007.54 1007.02 1006.26 1005.78 1005.62 1005.46 1005.22 1005.18 1005.06 1004.86 1004.50 1003.98 1003.54 1002.98 1002.62 1002.34 1002.14 1002.14 1002.02 1001.90 1001.82 1001.62 1001.62 1001.34 1001.14 1001.06 1001.10 1001.02 1000.82 1000.42 1000.22 1000.34 1000.50 1000.70 1001.06 1001.26 1001.46 1001.54 1001.78
1014.54 1012.94 1012.38 1013.22 1013.94 1013.18 1011.82 1011.22 1011.10 1011.22 1011.62 1011.34 1010.98 1011.22 1011.14 1011.14 1011.18 1010.78 1010.34 1009.38 1008.82 1008.82 1008.50 1008.22 1008.02 1007.74 1007.10 1006.26 1005.94 1005.66 1005.26 1005.10 1005.26 1005.10 1004.74 1004.26 1003.70 1003.22 1002.86 1002.58 1002.42 1002.22 1002.06 1001.90 1001.82 1001.78 1001.70 1001.50 1001.30 1001.26 1001.22 1001.10 1000.86 1000.62 1000.54 1000.50 1000.46 1000.70 1000.94 1001.06 1001.26 1001.58 1001.74
1014.14 1012.98 1013.02 1013.10 1013.38 1013.02 1012.50 1012.14 1011.58 1011.06 1011.02 1011.34 1011.34 1011.02 1010.90 1010.90 1010.58 1010.54 1010.30 1009.78 1009.42 1009.26 1008.82 1008.42 1008.30 1008.06 1007.54 1006.74 1006.38 1005.98 1005.54 1005.26 1005.02 1004.94 1004.82 1004.62 1004.02 1003.58 1003.26 1002.98 1002.70 1002.54 1002.30 1002.02 1001.82 1001.78 1001.74 1001.54 1001.42 1001.38 1001.26 1001.14 1001.02 1000.94 1000.78 1000.62 1000.50 1000.62 1000.70 1001.02 1001.22 1001.42 1001.66
1013.78 1013.18 1012.78 1012.58 1012.74 1012.90 1011.98 1011.58 1011.46 1011.18 1010.94 1011.18 1011.18 1010.74 1010.38 1010.42 1010.38 1010.30 1010.26 1009.90 1009.74 1009.62 1009.38 1008.74 1008.38 1008.22 1007.78 1007.10 1006.78 1006.54 1005.98 1005.46 1005.34 1004.78 1004.26 1004.50 1004.50 1003.94 1003.50 1003.38 1003.18 1002.82 1002.46 1002.30 1002.14 1001.90 1001.66 1001.46 1001.38 1001.34 1001.26 1001.18 1001.18 1001.14 1001.06 1000.86 1000.66 1000.66 1000.70 1000.78 1001.18 1001.38 1001.46
1013.58 1012.70 1012.50 1012.18 1011.98 1011.74 1011.46 1011.18 1011.10 1010.94 1010.74 1010.66 1010.58 1010.38 1010.14 1009.90 1009.90 1009.98 1010.18 1009.90 1009.54 1009.62 1009.54 1009.10 1008.30 1008.02 1007.82 1007.42 1006.98 1006.78 1006.54 1005.98 1005.54 1005.02 1004.70 1004.34 1004.18 1004.18 1003.94 1003.50 1003.30 1003.10 1002.82 1002.54 1002.26 1001.86 1001.54 1001.46 1001.42 1001.42 1001.54 1001.62 1001.62 1001.58 1001.46 1001.18 1000.74 1000.66 1000.78 1000.82 1001.06 1001.34 1001.46
Wind_Speed
2 5 3 7 11 9 5 8 12 10 7 7 2 2 1 1 1 11 3 5 4 7 7 7 5 6 9 9 13 13 13 11 10 13 14 16 17 16 16 17 16 17 16 16 18 18 17 17 17 18 18 18 19 17 17 18 17 16 17 17 16 15 14
1 10 9 6 12 7 5 9 9 4 1 4 4 6 0 5 7 7 1 11 1 6 11 1 3 5 10 9 12 14 13 9 12 14 14 16 18 19 20 21 19 18 18 19 18 17 18 19 20 19 19 18 17 17 18 19 17 18 17 16 16 15 15
7 12 8 3 5 9 10 7 9 11 5 10 8 3 10 8 8 2 4 1 4 10 8 1 6 8 10 10 10 10 11 9 14 14 15 16 18 16 16 18 16 14 15 15 16 19 19 18 18 19 18 17 16 16 17 19 20 19 18 15 14 13 14
10 8 1 8 5 5 7 7 11 6 6 7 7 9 2 2 4 0 7 1 8 5 6 8 10 11 12 12 10 11 14 14 14 14 14 14 15 16 17 17 17 17 18 19 20 20 19 20 19 17 18 16 18 17 17 17 17 16 17 17 16 15 14
5 2 1 5 2 6 7 4 4 3 3 2 6 1 7 5 3 4 1 5 4 6 6 8 12 12 13 13 14 13 14 14 15 15 15 14 16 16 17 17 18 19 19 19 19 18 17 15 13 14 16 19 18 16 17 18 18 18 17 17 15 14 13
3 8 2 3 5 5 5 3 4 7 8 3 8 9 1 4 5 4 3 11 3 8 3 9 11 12 13 14 15 14 15 15 15 14 14 14 15 17 18 18 18 18 18 18 17 15 13 13 15 18 17 16 17 18 17 17 17 17 18 16 15 14 13
10 15 20 14 10 8 7 3 4 4 2 4 5 7 6 2 6 2 3 3 10 7 6 9 10 9 10 11 11 12 11 13 14 15 16 16 18 18 18 18 17 17 17 17 17 19 19 20 20 19 17 17 18 18 17 16 17 18 18 17 16 14 13
11 14 13 4 3 3 1 0 6 7 4 6 4 3 6 8 2 5 6 9 7 6 5 7 6 4 5 4 7 11 10 10 11 12 11 12 12 14 15 15 15 15 14 13 12 14 15 15 14 17 17 17 17 17 17 17 18 18 17 15 15 14 14
7 7 5 1 4 7 5 6 7 5 6 7 7 4 1 4 9 9 8 12 11 3 1 2 3 4 5 5 5 6 7 6 10 14 14 13 14 14 15 15 16 13 11 13 15 17 17 17 17 17 17 17 18 18 17 17 17 17 16 14 15 15 15
4 8 8 1 8 10 11 5 7 8 11 12 11 2 1 7 5 7 7 12 2 1 3 2 3 3 5 5 5 5 6 7 6 7 11 12 13 15 16 16 14 15 16 17 16 16 16 17 17 17 17 17 17 17 18 17 16 15 15 14 15 15 15
7 4 1 3 5 7 6 16 17 15 9 4 3 3 3 7 2 7 7 12 4 3 2 5 6 6 9 8 5 7 8 9 8 7 10 13 14 15 17 17 16 15 13 16 18 18 18 18 17 16 17 17 17 16 17 16 16 16 15 15 14 15 15
9 7 7 8 8 12 14 13 18 15 11 7 5 5 7 1 2 11 4 6 7 16 9 8 8 9 8 5 7 7 7 8 11 11 11 14 14 14 14 14 15 16 18 18 18 18 18 17 16 15 15 16 17 17 17 16 15 15 13 14 15 15 15
8 7 6 8 9 10 11 14 15 17 17 10 9 8 10 8 6 7 1 5 7 19 8 6 10 11 9 9 12 12 12 9 8 9 9 13 16 17 16 16 16 18 18 17 18 17 17 17 17 17 15 15 13 13 13 14 15 16 15 15 16 16 15
4 7 7 8 9 8 9 11 14 15 14 15 13 14 12 12 11 6 14 12 15 17 10 5 5 3 4 5 3 3 6 12 12 11 13 15 17 18 18 18 18 18 19 18 18 18 17 18 18 17 15 15 16 17 16 16 16 15 15 16 16 15 16
4 6 6 6 4 6 11 13 12 11 11 13 12 12 12 8 7 11 17 16 16 5 7 6 5 4 2 3 4 6 7 7 9 12 15 16 17 17 17 16 18 18 18 17 16 16 17 18 19 18 17 17 17 17 15 16 16 15 16 15 16 16 16
5 1 0 4 7 10 10 12 9 8 7 9 9 4 5 2 5 5 8 9 13 5 13 11 5 6 8 7 10 10 10 8 7 11 13 14 14 15 16 17 16 17 16 15 16 18 18 18 18 17 15 15 15 16 16 17 16 15 15 15 16 15 15
5 2 2 8 11 8 2 4 1 7 2 5 8 2 5 6 4 4 9 10 4 11 11 8 6 5 7 9 10 10 12 12 8 7 8 11 12 14 16 17 17 17 17 18 19 20 18 18 18 18 17 16 17 17 17 15 13 15 16 16 15 14 14
4 4 7 6 1 4 5 6 5 4 2 5 10 7 10 9 5 4 5 8 12 12 11 4 2 6 5 4 5 3 6 10 12 6 5 5 7 10 14 17 18 18 15 15 17 19 20 20 21 18 17 18 15 12 12 12 15 14 15 14 14 15 14
4 4 5 1 4 6 2 1 6 9 4 5 13 10 6 12 13 14 12 12 13 13 9 3 1 1 1 4 9 12 11 10 9 8 6 5 7 9 9 10 12 13 16 16 15 13 13 13 11 12 11 8 10 11 13 14 14 14 14 14 14 14 14
2 4 0 2 5 2 6 2 4 7 4 7 12 5 4 14 15 14 13 15 14 12 10 8 5 2 4 1 10 13 13 13 10 10 4 6 7 10 10 12 11 12 13 14 16 16 12 12 13 14 13 12 14 13 13 14 13 14 14 14 14 13 14
3 4 3 7 6 6 3 4 6 11 6 9 7 5 5 12 15 16 16 17 16 15 11 9 8 7 5 6 12 15 18 15 14 10 8 5 6 8 6 7 7 7 7 8 8 8 10 12 13 13 12 12 12 12 12 12 13 13 13 14 14 14 14
2 1 3 5 1 5 2 2 7 6 5 7 8 4 6 11 18 17 16 16 16 16 13 10 7 4 6 12 10 13 16 16 15 12 10 7 3 5 9 7 9 8 8 9 9 11 11 11 11 10 11 12 12 13 13 12 13 13 14 15 14 14 14
4 2 2 3 3 2 3 7 8 9 6 8 3 3 2 9 16 18 17 18 17 15 12 10 5 4 6 7 7 10 14 14 14 12 10 8 7 4 5 12 12 11 11 12 12 12 12 12 10 11 12 13 12 13 12 13 14 14 15 15 14 14 14
3 2 2 4 4 5 5 9 10 12 9 5 3 3 2 11 16 16 16 17 17 16 13 8 10 8 8 4 5 9 11 11 12 11 11 10 10 9 8 6 9 11 11 12 12 13 14 14 13 14 14 14 14 13 13 13 14 15 15 15 15 14 13
5 6 4 3 5 2 7 9 12 13 8 2 2 1 3 9 13 14 14 15 15 15 12 11 9 8 5 4 8 12 14 14 14 13 12 11 10 11 10 8 7 9 8 10 11 11 11 12 12 14 14 14 14 12 12 12 14 15 14 11 10 11 11
6 4 4 7 5 0 5 11 10 9 2 4 3 3 4 8 11 14 14 13 14 14 11 8 6 5 12 15 14 15 15 13 12 12 13 13 13 13 12 12 10 10 11 11 10 9 6 9 10 11 12 12 11 10 11 13 12 8 8 10 10 10 11
3 2 3 2 2 1 9 14 6 12 7 4 6 5 6 7 9 12 14 12 14 13 11 10 13 15 14 12 12 12 14 15 13 13 13 13 13 13 13 13 11 10 11 11 11 9 7 8 8 9 11 11 9 9 10 8 6 7 8 9 10 10 10
2 4 3 2 2 6 10 7 4 5 7 3 8 7 8 9 8 10 12 13 13 14 13 13 13 12 13 15 16 15 15 14 15 14 15 14 13 13 12 12 10 10 12 10 11 10 9 9 8 9 12 11 10 10 8 5 6 7 7 8 9 10 10
1 1 2 3 0 5 6 9 10 10 8 8 9 9 8 10 11 10 10 13 16 14 14 12 12 11 12 10 11 12 12 12 13 14 13 14 13 11 12 11 10 10 11 11 11 12 10 10 9 9 10 13 11 10 5 4 5 7 8 8 9 10 10
9 8 9 3 3 4 6 9 8 8 7 8 8 9 9 9 10 11 10 13 15 15 14 13 11 11 10 12 12 12 13 13 13 15 16 15 14 14 12 12 11 9 9 10 11 12 11 10 9 8 7 9 12 7 4 3 3 5 7 8 8 8 8
6 1 3 6 9 6 4 7 7 8 6 7 7 7 8 9 12 13 14 12 14 14 14 13 12 12 12 10 11 11 11 14 15 14 13 13 12 12 12 10 9 10 9 10 10 10 10 8 7 7 8 7 5 5 7 4 2 3 6 7 7 7 8
3 4 8 10 8 8 3 5 7 6 7 7 7 6 6 9 9 10 14 13 13 14 13 15 14 16 16 14 13 10 8 9 11 12 12 12 11 11 10 10 9 8 8 8 8 8 8 6 6 6 6 6 4 3 6 5 4 4 5 5 6 7 8
8 10 4 9 11 4 9 7 7 5 4 5 6 6 8 8 9 12 14 13 12 14 14 13 15 16 18 16 15 14 9 7 9 10 11 11 9 9 11 9 7 7 5 6 6 7 6 4 4 5 5 5 4 6 6 5 4 6 5 4 4 4 5
5 3 4 10 8 6 6 8 11 10 1 1 7 7 5 8 9 8 10 13 13 14 13 12 12 14 14 16 14 15 13 10 7 8 10 11 11 11 9 7 7 7 6 6 6 6 5 5 5 5 6 5 4 4 4 4 4 6 4 4 4 3 3
7 8 12 11 10 13 13 12 10 9 2 2 7 10 9 9 8 7 8 9 9 11 13 11 9 11 13 15 13 14 14 14 12 9 7 9 11 11 10 10 11 8 6 6 6 6 5 5 5 5 5 5 5 4 3 3 4 5 5 5 4 3 3
14 13 12 11 10 11 11 10 9 11 10 8 11 12 12 11 9 7 6 8 8 7 9 11 7 8 11 14 12 12 14 15 13 15 13 7 5 10 10 9 10 10 9 8 7 6 5 5 6 6 6 6 6 5 3 1 3 5 5 5 4 2 2
11 11 12 13 12 14 12 13 12 11 12 12 12 12 12 12 10 8 7 7 6 4 8 9 9 7 8 12 12 11 11 14 13 14 14 14 13 10 10 12 11 11 9 7 6 5 5 5 5 6 6 6 6 4 2 0 4 6 6 5 4 3 2
Wind_Direction
328 334 326 200 154 208 191 157 203 205 115 176 215 281 236 100 55 246 98 279 283 299 316 243 230 223 228 217 222 222 219 205 177 188 192 194 197 197 197 201 202 198 191 192 193 193 192 190 189 191 189 187 186 184 185 189 191 188 189 190 192 194 196
344 356 313 273 196 135 130 191 202 125 139 126 161 223 331 205 218 253 183 232 220 160 247 291 173 202 225 215 225 225 221 189 184 198 194 194 195 196 197 202 201 193 192 193 193 194 192 191 191 190 189 187 186 185 185 186 188 189 191 190 192 193 194
304 335 341 294 253 171 186 203 145 174 171 189 200 189 226 218 230 261 274 262 242 193 232 191 198 198 221 224 225 231 230 193 202 203 200 198 196 195 197 203 200 191 193 192 192 195 195 193 190 189 187 185 186 188 187 187 188 189 188 189 192 194 193
308 299 129 219 202 264 224 110 182 169 139 208 166 202 151 140 255 199 276 294 245 217 216 186 203 202 209 208 212 222 225 212 204 203 201 197 193 194 198 201 197 193 195 193 193 193 191 190 188 186 184 185 188 188 186 189 190 187 186 189 189 191 192
336 285 221 222 195 202 214 214 180 189 212 240 188 192 199 190 186 205 216 264 267 250 214 185 199 203 206 196 201 209 217 220 212 205 198 195 194 196 200 199 197 196 196 195 194 193 191 185 181 181 184 188 189 186 188 187 186 187 190 191 188 191 186
322 264 298 64 47 63 2 289 229 189 183 178 171 239 85 170 206 224 183 253 268 269 208 194 205 209 200 204 197 201 209 213 214 211 201 194 195 200 200 198 197 198 197 194 191 186 178 176 181 185 187 185 186 189 189 187 187 188 188 188 190 190 189
276 276 281 279 287 283 258 220 276 328 267 130 174 214 242 178 228 137 170 320 257 244 210 207 205 212 216 209 197 207 206 210 211 211 205 197 198 199 200 198 198 198 196 191 184 180 181 183 185 185 182 184 187 188 187 188 188 190 188 188 188 187 188
260 259 260 294 343 183 160 48 21 8 353 357 315 289 189 187 218 197 232 244 247 190 205 222 230 234 242 246 195 202 204 201 209 218 216 206 203 206 204 201 200 198 192 181 175 180 184 183 181 182 185 185 184 186 188 186 191 190 187 186 185 185 187
332 321 30 109 10 48 56 325 321 299 303 339 299 244 95 237 199 179 180 235 248 254 359 293 300 268 260 254 250 228 230 206 202 205 208 206 206 203 200 198 197 188 173 173 182 184 184 184 185 184 182 183 184 186 186 188 191 187 186 183 183 185 187
192 219 209 108 333 330 313 281 302 325 347 341 0 318 332 224 245 174 199 241 205 171 168 219 241 296 294 283 276 280 235 237 203 206 217 215 206 201 199 199 190 181 182 184 183 183 184 185 184 182 182 183 184 184 187 186 184 184 185 182 183 182 186
225 261 280 239 238 299 311 308 309 302 313 287 264 242 295 242 214 204 231 240 235 257 273 264 251 186 206 236 256 242 247 245 237 202 208 212 209 205 200 194 190 185 181 185 186 185 184 184 184 182 181 181 182 183 183 183 184 182 180 179 180 183 186
239 266 281 287 287 286 286 294 293 298 290 289 263 218 231 52 90 251 225 271 267 252 215 213 230 255 256 236 229 240 242 241 232 218 205 212 214 209 201 194 184 182 187 187 186 185 182 183 182 180 181 182 181 180 182 181 178 178 179 180 181 184 185
235 254 269 279 286 266 269 272 277 282 283 283 260 248 238 264 238 249 306 238 247 264 246 208 221 225 231 209 218 219 223 232 237 236 216 204 207 205 198 193 186 186 187 186 186 183 183 179 178 177 178 180 178 179 179 178 177 181 178 179 182 185 186
244 256 253 269 271 277 269 266 266 269 280 280 270 262 252 232 248 286 285 267 250 256 271 278 279 294 237 242 223 247 237 235 232 225 221 209 202 199 195 191 189 189 189 185 184 181 178 178 179 175 176 178 178 178 179 179 181 179 172 181 183 185 189
250 245 260 264 259 286 291 277 273 279 277 279 269 248 254 247 255 251 256 264 271 274 44 350 297 317 305 327 318 272 255 258 235 218 216 210 198 193 193 190 187 188 187 185 179 178 179 180 180 178 178 180 179 179 177 178 179 177 177 180 183 185 193
292 245 216 288 295 288 260 272 281 293 324 348 345 10 342 240 235 255 258 267 261 331 338 332 317 7 31 8 342 331 315 274 228 212 208 203 193 186 188 188 188 187 183 176 176 180 183 183 181 179 178 176 174 179 178 179 179 173 176 178 184 188 189
262 254 347 316 315 307 248 194 286 297 295 338 328 265 354 10 278 252 234 242 6 311 311 308 332 20 38 27 4 343 328 312 273 232 218 205 196 186 184 186 187 185 181 180 180 183 181 181 181 183 177 174 181 180 177 177 165 171 178 180 182 185 185
263 303 322 314 352 199 221 152 90 1 312 354 352 330 13 351 11 275 265 275 297 312 324 327 359 52 49 38 352 333 331 318 302 263 220 220 216 200 190 187 185 184 182 182 184 182 182 184 185 179 175 181 179 169 161 157 170 174 175 179 181 185 186
278 302 344 145 193 212 22 186 33 2 344 29 338 293 10 4 356 351 342 332 327 322 309 292 317 70 100 43 27 14 358 343 325 274 202 197 186 194 197 193 189 182 180 180 180 179 182 177 167 162 171 148 127 146 159 167 173 173 177 178 181 184 188
306 16 343 175 207 298 306 187 44 21 48 21 349 335 22 19 7 352 341 330 319 316 307 292 273 300 329 302 35 14 2 357 343 335 288 191 174 184 186 186 184 175 177 177 177 181 169 158 166 170 167 156 155 163 166 168 171 174 175 179 185 186 189
174 209 161 237 317 321 26 2 11 360 348 341 353 320 307 18 2 357 343 330 329 326 317 298 281 277 279 17 16 4 2 355 349 341 331 300 187 161 164 165 173 168 161 154 146 132 147 162 164 168 157 157 157 155 162 167 168 171 175 183 188 188 190
163 75 305 334 32 206 175 102 313 318 305 308 285 255 276 10 356 348 346 336 329 323 327 324 303 292 37 24 360 354 351 353 350 346 348 1 16 137 136 128 130 132 130 125 133 140 146 158 159 152 155 154 154 159 164 164 167 175 180 190 189 187 191
40 37 152 228 199 235 116 316 320 319 303 305 301 211 240 14 347 342 343 339 332 330 330 336 360 62 66 29 354 341 348 348 354 350 354 8 28 46 126 140 138 138 141 141 139 138 142 147 155 152 153 152 154 163 166 169 174 178 187 191 188 190 194
209 212 221 266 220 250 301 327 333 316 306 350 139 176 50 352 337 339 338 342 337 330 330 351 42 43 80 28 360 347 349 354 5 8 10 15 31 46 55 75 121 128 129 127 137 148 158 162 155 155 152 157 164 168 174 171 176 186 191 193 192 192 190
223 220 254 281 300 312 338 328 319 309 301 162 106 107 351 327 325 335 338 336 340 330 348 8 43 16 12 31 28 12 8 11 10 11 20 28 39 48 49 60 79 99 106 125 140 150 156 153 155 156 159 163 170 170 168 174 187 192 192 188 184 188 189
211 210 219 229 242 339 315 330 322 309 30 58 68 60 9 329 331 335 340 336 340 341 350 360 8 4 21 26 23 19 13 7 5 9 20 28 39 45 52 54 64 86 88 91 93 87 109 144 149 154 155 159 159 158 166 185 191 179 170 179 184 187 188
191 217 239 301 311 286 359 328 334 12 80 352 340 343 345 350 339 346 341 348 337 337 334 357 14 20 21 19 19 19 16 10 5 7 13 23 27 35 41 45 43 66 81 77 76 81 82 105 125 131 130 131 136 146 162 170 146 145 158 167 176 183 190
216 186 196 210 341 310 309 329 82 54 67 20 343 347 347 344 353 351 343 339 339 337 348 354 7 12 11 18 16 16 13 7 3 8 16 19 22 30 38 45 41 45 69 68 71 66 70 79 96 112 118 119 123 123 133 157 149 148 153 156 164 177 190
341 278 310 336 158 311 13 52 62 66 43 32 6 4 3 354 339 336 341 336 337 339 352 353 2 10 8 6 13 21 9 7 10 12 15 20 20 21 29 34 33 42 56 62 63 58 51 61 70 84 103 111 107 106 143 152 144 145 156 161 167 182 188
299 268 246 242 79 44 52 62 69 66 38 32 16 2 347 350 336 331 333 333 339 337 351 356 356 9 4 3 4 9 11 10 4 9 11 10 13 19 24 26 27 37 46 54 60 63 53 46 58 60 70 97 105 121 137 127 144 146 147 146 168 186 190
348 254 164 15 340 335 115 90 87 75 56 37 8 3 354 338 341 335 326 335 339 338 350 356 350 352 2 4 10 9 11 10 7 2 3 3 8 13 17 15 24 30 39 48 50 56 57 39 53 58 69 59 75 119 114 112 99 134 130 149 169 178 188
262 271 337 338 335 305 98 109 67 40 22 21 10 359 343 336 328 327 321 332 342 342 357 353 352 350 356 1 3 5 11 6 1 356 353 352 354 2 8 12 21 31 38 45 52 53 50 31 42 61 65 73 81 81 91 93 91 108 117 147 159 177 186
287 288 296 6 339 65 112 109 93 68 29 356 346 346 336 337 334 327 326 328 339 345 347 349 352 351 347 352 353 350 355 13 7 354 344 344 347 354 6 358 11 32 33 45 52 60 49 24 43 55 56 57 52 60 61 70 83 83 90 117 146 163 170
288 306 16 19 355 306 288 308 325 330 306 15 326 310 314 315 311 314 321 321 335 339 335 343 351 350 339 341 350 345 339 345 1 349 346 343 344 351 356 354 4 13 26 40 43 48 30 9 28 39 42 33 32 38 57 70 85 84 84 79 98 128 150
291 307 309 303 285 277 273 283 294 293 225 332 303 294 296 287 284 299 310 308 325 330 324 325 344 344 337 330 343 340 337 333 334 337 351 360 341 345 348 354 358 356 5 21 32 34 21 14 32 34 35 21 20 20 26 56 86 97 101 99 104 122 139
279 280 287 286 276 271 277 270 272 277 280 279 274 272 272 265 268 265 263 278 284 300 304 307 325 340 331 325 334 334 329 328 338 333 338 12 357 333 345 351 348 350 356 1 6 1 1 20 33 33 26 11 355 349 340 344 94 94 94 104 106 139 151
285 291 287 279 273 272 270 274 269 263 258 259 258 256 260 267 260 245 242 244 232 252 281 295 312 324 329 323 326 330 328 323 328 333 340 343 354 6 352 350 352 347 338 338 340 346 9 19 36 39 26 358 341 327 306 162 105 85 80 84 92 104 130